sat.trackr.live / text

‹ back to catalog

STARLINK-34539

NORAD 64674 · 2025-139L

PAYLOAD ACTIVE UNKNOWN

§ Identity

Operator
Country
US
Launch date
2025-06-28
Launch site
AFETR
Launch vehicle
Mass (kg)
RCS (m²)

Purposes: comms

External: N2YO · Heavens-Above · Gunter

§ Orbital elements

Epoch: 2026-09-20T08:39:21.838752Z

Period
93.85 min
Inclination
53.1588°
Eccentricity
0.0001213
Mean motion
15.34440502 rev/d
Perigee alt
461.8 km
Apogee alt
463.4 km
Semi-major
6,840.7 km
B*
7.4814e-4
RAAN
298.2355°
Arg perigee
104.6593°
Mean anomaly
255.4544°
Rev number
7,005

§ Raw data

STARLINK-345391 64674U 25139L   26263.36066943  .00025018  00000+0  74814-3 0  99952 64674  53.1588 298.2355 0001213 104.6593 255.4544 15.34440502 70057

JSON: /api/v1/satellites/64674 · /tle

For live sub-satellite position, see the globe view (requires WebGL).

§ Visibility from observer

Set your observer location to see the next 7 days of passes ≥ 10°. The values pass through the URL so the page stays shareable.

No JS? Fill the form by hand. The geolocation button needs JavaScript.